Location: Caltech
(34.1382°N, 118.1253°W)
Time: 07:59:41
(UTC-08:00)

Cosmos 2360 Rocket - Visible Passes

Search period start: 23 November 2014 00:00
Search period end: 03 December 2014 00:00
Orbit: 834 x 846 km, 71.0° (Epoch: 23 November)

Date Brightness Start Highest point End Pass type
(mag) Time Alt. Az. Time Alt. Az. Time Alt. Az.
28 Nov 4.5 19:26:35 10° NNW 19:27:09 13° NNW 19:27:09 13° NNW visible
29 Nov 3.9 19:11:00 10° NNW 19:12:47 21° NNW 19:12:47 21° NNW visible
30 Nov 3.0 18:55:25 10° NNW 18:58:47 37° N 18:58:47 37° N visible
01 Dec 2.0 18:39:51 10° NNW 18:45:24 65° ENE 18:45:24 65° ENE visible
01 Dec 5.0 20:26:12 10° WNW 20:27:20 12° W 20:27:20 12° W visible
02 Dec 2.1 18:24:17 10° NNW 18:29:51 60° ENE 18:33:55 18° SE visible
02 Dec 4.8 20:10:18 10° WNW 20:13:13 14° W 20:16:07 10° SW visible
